Change the Weather History Date:

Tuesday, October 1, 2013

  Actual Average Record
Temperature  
Mean Temperature 70 °F 60 °F  
Max Temperature 78 °F 72 °F 86 °F (2002)
Min Temperature 62 °F 47 °F 33 °F (2003)
Degree Days  
Heating Degree Days 0 7  
Month to date heating degree days 0 7  
Since 1 July heating degree days 53 80  
Cooling Degree Days 5 2  
Month to date cooling degree days 5 2  
Year to date cooling degree days 1044 1031  
Growing Degree Days 20 (Base 50)    
Moisture  
Dew Point 62 °F    
Average Humidity 77    
Maximum Humidity 93    
Minimum Humidity 60    
Precipitation  
Precipitation 0.00 in 0.10 in 0.35 in (2014)
Month to date precipitation 0.00 0.10  
Year to date precipitation 26.96 29.30  
Sea Level Pressure  
Sea Level Pressure 29.99 in    
Wind  
Wind Speed 9 mph (SSW)    
Max Wind Speed 15 mph    
Max Gust Speed 20 mph    
Visibility 7 miles    
Events      
T = Trace of Precipitation, MM = Missing Value Source: NWS Daily Summary

Daily Weather History Graph

Daily Weather History Graph

Search for Another Location

Airport or City:

Trip Planner

Search our weather history database for the weather conditions in past years. The results will help you decide how hot, cold, wet, or windy it might be!

Date:

Astronomy

Oct. 01, 2013 Rise Set
Actual Time 6:51 AM CDT 6:37 PM CDT
Civil Twilight 6:25 AM CDT 7:04 PM CDT
Nautical Twilight 5:53 AM CDT 7:35 PM CDT
Astronomical Twilight 5:22 AM CDT 8:07 PM CDT
Moon 3:26 AM CDT (10/1) 4:40 PM CDT (10/1)
Length of Visible Light 12h 39m
Length of Day
11h 45m
Waning Crescent, 12% of the Moon is Illuminated
Oct 1
Waning Crescent
Oct 4
New
Oct 11
First Quarter
Oct 18
Full
Oct 26
Last Quarter

Hourly Weather History & Observations

Time (CDT) Temp. Dew Point Humidity Pressure Visibility Wind Dir Wind Speed Gust Speed Precip Events Conditions
12:16 AM 64.4 °F 60.8 °F 88% 29.96 in - South 10.4 mph - N/A   Scattered Clouds
12:25 AM 64.4 °F 60.8 °F 88% 29.96 in - South 11.5 mph - N/A   Mostly Cloudy
12:36 AM 64.4 °F 60.8 °F 88% 29.96 in - South 12.7 mph - N/A   Overcast
12:54 AM 64.9 °F 61.0 °F 87% 29.95 in - SSW 13.8 mph 19.6 mph N/A   Overcast
1:22 AM 64.4 °F 60.8 °F 88% 29.96 in - SSW 11.5 mph - N/A   Overcast
1:54 AM 64.9 °F 60.1 °F 84% 29.96 in - SSW 10.4 mph - N/A   Overcast
2:54 AM 66.0 °F 60.1 °F 81% 29.96 in - SSW 11.5 mph - N/A   Overcast
3:06 AM 66.2 °F 60.8 °F 83% 29.97 in - SSW 11.5 mph - N/A   Overcast
3:54 AM 66.0 °F 60.1 °F 81% 29.96 in - SSW 9.2 mph - N/A   Overcast
4:19 AM 64.4 °F 60.8 °F 88% 29.97 in - South 5.8 mph - N/A   Overcast
4:40 AM 64.4 °F 59.0 °F 83% 29.98 in - South 5.8 mph - N/A   Scattered Clouds
4:54 AM 63.0 °F 59.0 °F 87% 29.98 in - South 5.8 mph - N/A   Clear
5:29 AM 62.6 °F 60.8 °F 94% 30.00 in - South 4.6 mph - N/A   Mostly Cloudy
5:54 AM 64.0 °F 60.1 °F 87% 30.00 in - South 4.6 mph - N/A   Overcast
6:54 AM 64.0 °F 60.1 °F 87% 30.01 in 5.0 mi South 6.9 mph - N/A   Overcast
7:54 AM 66.0 °F 61.0 °F 84% 30.02 in 5.0 mi SSW 9.2 mph - N/A   Haze
8:20 AM 66.2 °F 60.8 °F 83% 30.03 in 5.0 mi SSW 9.2 mph - N/A   Haze
8:54 AM 66.0 °F 61.0 °F 84% 30.04 in 5.0 mi SSW 13.8 mph - N/A   Haze
9:54 AM 66.9 °F 62.1 °F 84% 30.04 in 6.0 mi SSW 10.4 mph - N/A   Haze
10:21 AM 69.8 °F 62.6 °F 78% 30.04 in 6.0 mi SSW 9.2 mph - N/A   Haze
10:54 AM 70.0 °F 62.1 °F 76% 30.03 in 6.0 mi SSW 11.5 mph - N/A   Haze
11:54 AM 72.0 °F 64.0 °F 76% 30.02 in 6.0 mi SSW 10.4 mph - N/A   Haze
12:41 PM 73.4 °F 62.6 °F 69% 30.02 in 6.0 mi SSW 11.5 mph - N/A   Haze
12:54 PM 75.0 °F 62.1 °F 64% 30.01 in 7.0 mi SSW 10.4 mph - N/A   Mostly Cloudy
1:54 PM 77.0 °F 62.1 °F 60% 29.99 in 10.0 mi SSW 11.5 mph - N/A   Mostly Cloudy
2:54 PM 75.0 °F 62.1 °F 64% 29.99 in 10.0 mi SSW 13.8 mph - N/A   Mostly Cloudy
3:54 PM 75.0 °F 64.0 °F 69% 29.99 in 10.0 mi SSW 11.5 mph - N/A   Overcast
4:54 PM 73.9 °F 64.0 °F 71% 29.98 in 10.0 mi South 12.7 mph - N/A   Overcast
5:54 PM 73.9 °F 64.0 °F 71% 29.98 in 10.0 mi South 9.2 mph - N/A   Overcast
6:49 PM 71.6 °F 64.4 °F 78% 30.00 in 10.0 mi South 8.1 mph - N/A   Scattered Clouds
6:54 PM 71.1 °F 64.0 °F 78% 29.99 in 10.0 mi South 8.1 mph - N/A   Partly Cloudy
7:54 PM 69.1 °F 64.0 °F 84% 30.00 in 10.0 mi South 5.8 mph - N/A   Clear
8:54 PM 68.0 °F 63.0 °F 84% 30.01 in 8.0 mi South 6.9 mph - N/A   Clear
9:54 PM 66.9 °F 63.0 °F 87% 30.01 in 6.0 mi South 4.6 mph - N/A   Clear
10:54 PM 66.9 °F 64.0 °F 90% 30.01 in 6.0 mi South 5.8 mph - N/A   Clear
11:54 PM 69.1 °F 64.9 °F 87% 30.02 in 6.0 mi SSW 8.1 mph - N/A   Scattered Clouds